#timestamp,LO_Frequency,Hit,StdDev 
1556719215.1,286047000.1,N
1556719235.9,286047000.4,N
1556719255.7,286046999.5,N
1556719275.5,286046996.8,N
1556719295.4,286046996.8,N
1556719315.2,286046997.4,N
1556719335.0,286046998.0,N
1556719335.9,286046998.0,N
1556719355.8,286046999.0,N
1556719375.6,286046996.6,N
1556719395.5,286046998.8,N
1556719415.3,286046998.4,N
1556719435.1,286046998.3,N
1556719455.9,286046998.8,N
1556719475.7,286046998.0,N
1556719495.5,286046997.6,N
1556719515.4,286046997.6,N
1556719535.2,286046999.5,N
1556719555.0,286046996.8,N
1556719556.0,286046996.8,N
1556719575.8,286046996.7,N
1556719625.7,286047001.2,E
1556719635.6,286046998.6,N
1556719655.4,286047001.1,P
1556719675.2,286047000.2,N
1556719695.1,286047000.4,N
1556719696.0,286047000.4,N
1556719715.8,286047000.6,N
1556719735.7,286046998.6,N
1556719755.5,286046998.4,N
1556719775.3,286046997.1,N
1556719795.2,286046997.3,N
1556719815.0,286046997.7,N
1556719815.9,286046997.7,N
1556719835.8,286046997.4,N
1556719855.6,286046997.9,N
1556719875.4,286046997.1,N
1556719895.3,286046995.0,Y
1556719915.1,286046997.2,P
1556719935.8,286046997.2,P
1556719955.7,286046999.4,N
1556719975.5,286046999.3,N
1556719995.4,286046998.5,N
1556720015.2,286047000.6,N
1556720035.0,286046999.1,N
1556720035.9,286046999.1,N
1556720055.8,286046995.3,Y
1556720075.6,286046997.0,P
1556720095.5,286046999.0,N
1556720115.3,286046997.0,P
1556720135.1,286046998.2,N
1556720155.9,286047000.5,N
1556720175.7,286047002.0,N
1556720195.5,286047002.8,N
1556720215.4,286047000.2,N
1556720235.2,286047002.0,N
1556720255.0,286047004.3,N
1556720255.9,286047004.3,N
1556720275.8,286047004.2,N
1556720295.6,286047004.3,N
1556720315.5,286047002.3,N
1556720335.3,286047002.1,N
1556720355.1,286047002.0,N
1556720375.9,286046999.7,N
1556720395.7,286047000.5,N
1556720415.5,286046999.9,N
1556720435.4,286047002.1,N
1556720455.2,286046999.9,N
1556720475.1,286047000.8,N
1556720476.0,286047000.8,N
1556720495.8,286047000.2,N
1556720515.6,286047000.8,N
1556720535.5,286046998.9,N
1556720555.3,286046999.2,N
1556720575.1,286046999.0,N
1556720595.9,286046998.8,N
1556720615.7,286046999.2,N
1556720635.6,286046996.5,N
1556720655.4,286046999.3,N
1556720675.2,286046998.2,N
1556720695.1,286047001.1,N
1556720715.3,286047002.5,N
1556720735.1,286046999.7,N
1556720755.9,286047002.7,N
1556720775.7,286047002.8,N
1556720795.5,286047002.5,N
1556720815.4,286047001.7,N
1556720835.2,286047001.4,N
1556720855.0,286047003.9,N
1556720855.9,286047003.9,N
1556720875.8,286047004.2,N
1556720895.6,286047003.2,N
1556720915.5,286047003.0,N
1556720935.3,286047003.9,N
1556720955.1,286047003.2,N
1556720975.9,286047002.8,N
1556720995.7,286046998.3,N
1556721015.5,286047001.1,N
1556721035.4,286047000.9,N
1556721055.2,286046998.8,N
1556721075.1,286046998.9,N
1556721076.0,286046998.9,N
1556721095.8,286047001.0,N
1556721115.6,286046999.8,N
1556721135.5,286047000.1,N
1556721155.3,286047002.0,N
1556721175.1,286047002.8,N
1556721195.9,286047002.8,N
1556721215.7,286047000.1,N
1556721235.6,286047000.3,N
1556721255.4,286047001.2,N
1556721275.2,286047000.5,N
1556721295.1,286046998.2,N
1556721296.0,286046998.2,N
1556721315.8,286047000.7,N
1556721335.6,286047000.6,N
1556721355.5,286047000.7,N
1556721375.3,286047000.8,N
1556721395.2,286046999.8,N
1556721415.9,286046999.8,N
1556721435.7,286047003.7,N
1556721455.6,286047001.6,N
1556721475.4,286047001.2,N
1556721495.2,286046998.7,N
1556721515.1,286046996.7,N
1556721516.0,286046996.7,N
1556721535.8,286046999.4,N
1556721555.7,286047000.5,N
1556721575.5,286047000.4,N
1556721595.3,286047002.0,N
1556721615.2,286047002.3,N
1556721635.0,286047004.2,N
1556721635.9,286047004.2,N
1556721655.7,286047003.9,N
1556721675.6,286047004.3,N
1556721695.4,286047003.3,N
1556721715.3,286047006.0,N
1556721735.1,286047004.2,N
1556721736.0,286047004.2,N
1556721755.8,286047001.7,N
1556721775.7,286047003.0,N
1556721795.5,286047003.0,N
1556721815.3,286047003.4,N
1556721835.2,286047003.5,N
1556721855.0,286047004.8,N
1556721855.9,286047004.8,N
1556721875.8,286047003.5,N
1556721895.6,286047004.4,N
1556721915.4,286047004.0,N
1556721935.3,286047004.1,N
1556721955.1,286047005.9,N
1556721975.8,286047004.0,N
1556721995.7,286047002.1,N
1556722015.5,286047002.6,N
1556722035.4,286046999.9,N
1556722055.2,286047000.2,N
1556722075.0,286047002.4,N
1556722075.9,286047002.4,N
1556722095.8,286047002.3,N
1556722115.6,286047002.1,N
1556722135.4,286047001.9,N
1556722155.3,286047000.2,N
1556722175.1,286046999.7,N
1556722195.9,286047000.2,N
1556722215.7,286046999.7,N
1556722235.5,286047001.3,N
1556722255.4,286047003.9,N
1556722275.2,286047003.6,N
1556722295.0,286047003.5,N
1556722295.9,286047003.5,N
1556722315.8,286047005.6,Y
1556722335.6,286046999.9,P
1556722355.5,286046998.4,N
1556722375.3,286046998.6,N
1556722395.1,286047000.5,N
1556722415.9,286047000.1,N
1556722435.7,286047002.8,N
1556722455.5,286047001.7,N
1556722475.4,286047004.0,N
1556722495.2,286047004.4,N
1556722515.1,286047001.8,N
1556722516.0,286047001.8,N
1556722535.8,286047001.4,N
1556722555.6,286047003.8,N
1556722575.5,286047004.2,N
1556722595.3,286047002.5,N
1556722615.2,286047001.9,N
1556722635.9,286047002.7,N
1556722655.7,286047001.9,N
1556722675.6,286047000.2,N
1556722695.4,286047000.5,N
1556722715.2,286046998.3,N
1556722735.1,286047000.3,N
1556722736.0,286047000.3,N
1556722755.8,286047002.0,N
1556722775.7,286047001.4,N
1556722795.5,286046999.9,N
